This demonstration page uses our WeatherBlox Daily Observations layout. Learn more.

Left ArrowRight Arrow

34.16533, -84.80231

Hourly Observations for October 14, 2019

Temp ( °F °C ) Dew Point ( °F °C ) Humidity (%) Winds ( mph kmh ) Pressure ( in mb ) Visibility ( mi km ) Precip ( " mm )
12:53 am 00:53 Clear 56 13.3 53 11.7 90 90 Calm 30.06 1018 10 16 0.00 0.00
1:53 am 01:53 Clear 53 11.7 51 10.6 93 93 Calm 30.06 1018 10 16 0.00 0.00
2:53 am 02:53 Clear 52 11.1 50 10 93 93 Calm 30.06 1018 10 16 0.00 0.00
3:53 am 03:53 Clear 51 10.6 48 8.9 89 89 Calm 30.06 1018 10 16 0.00 0.00
4:53 am 04:53 Clear 50 10 48 8.9 93 93 Calm 30.07 1018 10 16 0.00 0.00
5:16 am 05:16 Mostly Clear 49 9.4 47 8.3 93 93 Calm 30.11 1020 10 16 0.00 0.00
5:53 am 05:53 Clear 50 10 47 8.3 89 89 Calm 30.09 1019 10 16 0.00 0.00
6:53 am 06:53 Clear 49 9.4 47 8.3 93 93 Calm 30.10 1019 10 16 0.00 0.00
7:53 am 07:53 Sunny 48 8.9 45 7.2 89 89 Calm 30.11 1020 9 14 0.00 0.00
8:53 am 08:53 Sunny 52 11.1 50 10 93 93 Calm 30.13 1020 10 16 0.00 0.00
9:53 am 09:53 Sunny 58 14.4 50 10 75 75 N 3 6 30.14 1021 10 16 0.00 0.00
10:53 am 10:53 Sunny 63 17.2 50 10 63 63 NNE 5 7 30.14 1021 10 16 0.00 0.00
11:53 am 11:53 Sunny 67 19.4 48 8.9 51 51 Calm 30.13 1020 10 16 0.00 0.00
12:53 pm 12:53 Sunny 72 22.2 46 7.8 40 40 Calm 30.11 1020 10 16 0.00 0.00
1:53 pm 13:53 Sunny 75 23.9 43 6.1 32 32 N 5 7 30.08 1019 10 16 0.00 0.00
2:53 pm 14:53 Sunny 76 24.4 43 6.1 31 31 VRB 3 6 30.07 1018 10 16 0.00 0.00
3:53 pm 15:53 Sunny 77 25 47 8.3 35 35 S 6 9 30.06 1018 10 16 0.00 0.00
4:53 pm 16:53 Mostly Sunny 77 25 46 7.8 33 33 VRB 5 7 30.06 1018 10 16 0.00 0.00
5:53 pm 17:53 Mostly Sunny 75 23.9 50 10 41 41 SSE 3 6 30.06 1018 10 16 0.00 0.00
6:53 pm 18:53 Sunny 71 21.7 54 12.2 55 55 Calm 30.06 1018 10 16 0.00 0.00
7:53 pm 19:53 Clear 66 18.9 56 13.3 70 70 Calm 30.07 1018 10 16 0.00 0.00
8:53 pm 20:53 Partly Cloudy 65 18.3 56 13.3 73 73 Calm 30.08 1019 10 16 0.00 0.00
9:53 pm 21:53 Clear 63 17.2 57 13.9 81 81 Calm 30.09 1019 10 16 0.00 0.00
10:53 pm 22:53 Clear 60 15.6 57 13.9 90 90 Calm 30.09 1019 10 16 0.00 0.00
11:53 pm 23:53 Clear 61 16.1 57 13.9 87 87 Calm 30.09 1019 10 16 0.00 0.00

Powered by AerisWeather